Tracking 35331 objects as of 16-Sep-2026
HD Live streaming from Space Station
objects crossing your sky now

STARLINK-4728

Track STARLINK-4728 now!
10-day predictions
STARLINK-4728 is classified as:


NORAD ID: 53793
Int'l Code: 2022-111W
Launch date: September 11, 2022
Source: United States (US)
Launch site: AIR FORCE EASTERN TEST RANGE (AFETR)
Your satellite tracking list
Your tracking list is empty




NASA's NSSDC Master Catalog

Two Line Element Set (TLE):
1 53793U 22111W   26258.63050568 -.00000095  00000-0  87237-5 0  9997
2 53793  53.1603 128.6916 0001596  83.7129 276.4054 15.31698115222533
Source of the keplerian elements: AFSPC